This is the latest recevied weather packets stored in our database for station/object KA3WVU. If no packets are shown the sender has not sent any weather packets the latest 10 day(s).
| Time | Temp. | Humidity | Pressure | Rain* | Wind** | Luminosity | Snow |
|---|---|---|---|---|---|---|---|
| 1777912525 | 17.78° C | 46% | 1009.7 hPa | 0 mm | - | 289 W/m² | - |
| 1777912222 | 18.33° C | 45% | 1009.9 hPa | 0 mm | - | 373 W/m² | - |
| 1777911918 | 17.78° C | 45% | 1009.7 hPa | 0 mm | - | 212 W/m² | - |
| 1777911614 | 17.22° C | 46% | 1010.1 hPa | 0 mm | - | 142 W/m² | - |
| 1777911310 | 17.22° C | 47% | 1010 hPa | 0 mm | - | 359 W/m² | - |
| 1777911008 | 16.11° C | 48% | 1010.1 hPa | 0 mm | - | 98 W/m² | - |
| 1777910706 | 17.22° C | 47% | 1010.2 hPa | 0 mm | - | 151 W/m² | - |
| 1777910401 | 17.22° C | 46% | 1010.2 hPa | 0 mm | - | 200 W/m² | - |
| 1777910098 | 16.67° C | 46% | 1010.1 hPa | 0 mm | - | 387 W/m² | - |
| 1777909796 | 16.67° C | 47% | 1010.2 hPa | 0 mm | - | 445 W/m² | - |
| 1777909492 | 16.67° C | 46% | 1010.4 hPa | 0 mm | - | 347 W/m² | - |
| 1777909190 | 16.11° C | 47% | 1010.3 hPa | 0 mm | - | 523 W/m² | - |
| 1777908888 | 16.11° C | 48% | 1010.4 hPa | 0 mm | - | 316 W/m² | - |
| 1777908585 | 16.11° C | 47% | 1010.4 hPa | 0 mm | - | 232 W/m² | - |
| 1777908282 | 15.56° C | 48% | 1010.3 hPa | 0 mm | - | 398 W/m² | - |
| 1777907978 | 15.56° C | 48% | 1010.4 hPa | 0 mm | - | 547 W/m² | - |
| 1777907674 | 15.56° C | 49% | 1010.4 hPa | 0 mm | - | 579 W/m² | - |
| 1777907369 | 15° C | 49% | 1010.5 hPa | 0 mm | - | 452 W/m² | - |
| 1777907066 | 15.56° C | 48% | 1010.5 hPa | 0 mm | - | 591 W/m² | - |
| 1777906764 | 15.56° C | 46% | 1010.8 hPa | 0 mm | - | 611 W/m² | - |
| 1777906460 | 14.44° C | 51% | 1010.5 hPa | 0 mm | - | 521 W/m² | - |
| 1777906157 | 15° C | 49% | 1010.6 hPa | 0 mm | - | 524 W/m² | - |
| 1777905854 | 15° C | 50% | 1010.6 hPa | 0 mm | - | 496 W/m² | - |
| 1777905550 | 14.44° C | 49% | 1010.6 hPa | 0 mm | - | 586 W/m² | - |
| 1777905248 | 14.44° C | 50% | 1010.6 hPa | 0 mm | - | 564 W/m² | - |
* Rain latest hour (hover to see other rain measurements)
** Current wind speed in m/s (hover to see current wind gust speed)